This is the latest recevied weather packets stored in our database for station/object W7TTE. If no packets are shown the sender has not sent any weather packets the latest 10 day(s).
| Time | Temp. | Humidity | Pressure | Rain* | Wind** | Luminosity | Snow |
|---|---|---|---|---|---|---|---|
| 1777821808 | 27.78° C | 24% | 1013.3 hPa | 0 mm | - | 242 W/m² | - |
| 1777821505 | 27.78° C | 25% | 1013.1 hPa | 0 mm | - | 180 W/m² | - |
| 1777821202 | 26.67° C | 29% | 1012.9 hPa | 0 mm | - | 166 W/m² | - |
| 1777820899 | 26.67° C | 29% | 1013 hPa | 0 mm | - | 146 W/m² | - |
| 1777820595 | 26.11° C | 31% | 1013.4 hPa | 0 mm | - | 141 W/m² | - |
| 1777820292 | 25.56° C | 31% | 1013.4 hPa | 0 mm | - | 162 W/m² | - |
| 1777819990 | 25.56° C | 33% | 1013.3 hPa | 0 mm | - | 145 W/m² | - |
| 1777819686 | 25° C | 33% | 1013 hPa | 0 mm | - | 150 W/m² | - |
| 1777819385 | 25° C | 33% | 1013.1 hPa | 0 mm | - | 137 W/m² | - |
| 1777819082 | 24.44° C | 33% | 1013.3 hPa | 0 mm | - | 131 W/m² | - |
| 1777818778 | 24.44° C | 33% | 1013.3 hPa | 0 mm | - | 132 W/m² | - |
| 1777818474 | 23.89° C | 33% | 1013 hPa | 0 mm | - | 113 W/m² | - |
| 1777818171 | 23.89° C | 33% | 1013 hPa | 0 mm | - | 104 W/m² | - |
| 1777817868 | 23.33° C | 34% | 1012.8 hPa | 0 mm | - | 104 W/m² | - |
| 1777817566 | 23.33° C | 33% | 1013 hPa | 0 mm | - | 92 W/m² | - |
| 1777817262 | 23.33° C | 33% | 1013 hPa | 0 mm | - | 83 W/m² | - |
| 1777816959 | 22.78° C | 34% | 1013 hPa | 0 mm | - | 73 W/m² | - |
| 1777816656 | 22.78° C | 33% | 1012.9 hPa | 0 mm | - | 63 W/m² | - |
| 1777816353 | 22.78° C | 34% | 1013 hPa | 0 mm | - | 58 W/m² | - |
| 1777816050 | 22.78° C | 36% | 1013 hPa | 0 mm | - | 52 W/m² | - |
| 1777815748 | 22.22° C | 34% | 1013 hPa | 0 mm | - | 42 W/m² | - |
| 1777815445 | 22.22° C | 35% | 1012.9 hPa | 0 mm | - | 37 W/m² | - |
| 1777815143 | 22.22° C | 35% | 1012.7 hPa | 0 mm | - | 34 W/m² | - |
| 1777814839 | 22.22° C | 36% | 1012.7 hPa | 0 mm | - | 31 W/m² | - |
| 1777814535 | 22.22° C | 35% | 1012.4 hPa | 0 mm | - | 23 W/m² | - |
* Rain latest hour (hover to see other rain measurements)
** Current wind speed in m/s (hover to see current wind gust speed)